www.pogodaiklimat.ru

Погода и климат >> Архив погоды >> Чили >> Икике


ПОГОДА в Икике

  • Прогноз погоды в Икике
  • Монитор погоды в Икике

АРХИВ ПОГОДЫ в Икике

Время (UTC), дата Ветер
(напр.,м/с)
 
Видим.   Явления Облачность Т
(С)
Тd
(С)
f
(%)
Тe
(С)
Тes
(С)
Комфортность P
(гПа)
Po
(гПа)
Тmin
(С)
Tmax
(С)
R
(мм)
R24
(мм)
S
(см)
06 13.06 штиль 0 15 км 10/10 870 м
[Sc]
+17.1 +10.8 66 +17 +17 1018.2 1012.5
09 13.06 З 3 15 км 10/10 840 м
[Sc]
+16.6 +10.3 66 +17 +17 1017.9 1012.2
12 13.06 В 3 15 км 10/10 930 м
[Sc]
+16.8 +10.0 64 +17 +17 1018.9 1013.2 +16.5
15 13.06 ЮЗ 6 15 км 9/9 960 м
[Sc Ac trans]
+18.7 +9.8 56 +19 +19 1019.2 1013.6
18 13.06 ЮЗ 9 20 км 6/0
[Ac trans Ci sp]
+19.1 +11.0 59 +19 +20 1017.2 1011.6
21 13.06 ЮЗ 8 15 км 6/3 900 м
[Sc Ci sp]
+17.7 +11.1 65 +17 +17 1016.2 1010.6
00 14.06 ЮЗ 4 15 км 5/0
[Ci sp]
+15.9 +11.5 75 +15 +15 1017.0 1011.3 +19.1
03 14.06 Ю 2 15 км 10/10 720 м
[Sc]
+15.6 +10.8 73 +16 +16 1017.9 1012.2
06 14.06 Ю 3 15 км 10/10 660 м
[Sc]
+15.6 +10.6 72 +15 +15 1016.7 1011.0
09 14.06 Ю 2 10 км 10/10 700 м
[Sc]
+15.9 +10.7 71 +16 +16 1016.4 1010.7
12 14.06 СВ 2 8000 м мгла 10/10 750 м
[Sc]
+16.2 +10.6 69 +17 +17 1017.9 1012.2 +15.3
15 14.06 З 2 10 км {туман} 10/10 800 м
[Sc]
+16.6 +11.0 69 +17 +17 1018.8 1013.1
18 14.06 СЗ 2 15 км 10/10 800 м
[Sc]
+16.8 +10.7 67 +17 +17 1017.4 1011.7
21 14.06 З 2 15 км 10/10 840 м
[Sc]
+16.8 +11.4 70 +17 +17 1016.6 1010.8
00 15.06 С 2 15 км 10/10 840 м
[Sc]
+16.2 +11.6 74 +17 +17 1018.1 1012.4 +17.2
03 15.06 СВ 2 15 км 10/10 840 м
[Sc]
+16.1 +12.1 77 +16 +16 1019.6 1013.9
06 15.06 В 2 15 км 10/10 900 м
[Sc]
+16.4 +10.6 69 +17 +17 1019.0 1013.3
09 15.06 ЮЗ 3 15 км 10/10 1000 м
[Sc]
+16.3 +11.1 71 +16 +16 1018.8 1013.1
12 15.06 В 3 15 км 10/10 1000 м
[Sc]
+16.4 +10.8 69 +16 +16 1018.9 1013.2 +16.0
15 15.06 ЮЗ 7 15 км 9/9 500 м
[Sc]
+17.1 +12.1 72 +16 +16 1019.9 1014.2
18 15.06 ЮЗ 6 15 км 10/10 600 м
[Sc]
+17.2 +12.0 71 +16 +16 1018.5 1012.8
21 15.06 ЮЗ 7 15 км 10/10 600 м
[Sc]
+16.2 +11.6 74 +15 +15 1017.2 1011.5
00 16.06 ЮЗ 6 15 км 10/10 750 м
[Sc]
+16.0 +11.6 75 +15 +15 1018.4 1012.7 +18.2
03 16.06 ЮЗ 3 10 км 10/10 800 м
[Sc]
+15.7 +11.9 78 +15 +15 1019.0 1013.3
06 16.06 ЮЗ 2 10 км 10/10 870 м
[Sc]
+15.7 +11.7 77 +16 +16 1018.1 1012.4
09 16.06 ЮЗ 5 10 км 10/10 1000 м
[Sc]
+15.6 +12.4 81 +14 +14 1016.5 1010.8
12 16.06 Ю 5 15 км 9/9 930 м
[Sc Ac trans]
+15.2 +11.8 80 +14 +14 1016.3 1010.6 +14.8
15 16.06 ЮЗ 8 20 км 10/10 900 м
[Sc]
+16.3 +11.9 75 +15 +15 1016.8 1011.1
18 16.06 ЮЗ 7 20 км 10/10 870 м
[Sc]
+16.6 +11.8 73 +15 +15 1015.3 1009.6
21 16.06 ЮЗ 5 20 км 10/10 800 м
[Sc]
+15.9 +11.5 75 +15 +15 1014.7 1009.0
00 17.06 З 2 10 км 10/10 720 м
[Sc]
+15.8 +11.6 76 +16 +16 1016.3 1010.6 +16.9
03 17.06 ЮЗ 2 10 км 10/10 870 м
[Sc]
+15.7 +11.1 74 +16 +16 1017.9 1012.2
06 17.06 ЮЗ 5 10 км 10/10 800 м
[Sc]
+15.3 +10.9 75 +14 +14 1017.3 1011.6
09 17.06 ЮЗ 3 10 км 10/10 720 м
[Sc]
+15.4 +9.8 69 +15 +15 1016.6 1010.9
12 17.06 ЮЗ 2 10 км 10/10 720 м
[Sc]
+15.0 +9.2 68 +15 +15 1017.2 1011.5 +14.7
15 17.06 ЮЗ 6 20 км ясно +16.4 +9.2 62 +15 +19 1017.2 1011.5
18 17.06 ЮЗ 10 20 км 3/3 600 м
[Sc]
+17.1 +10.8 66 +16 +16 1015.2 1009.4
21 17.06 ЮЗ 9 15 км 1/1 600 м
[Sc]
+15.9 +11.1 73 +14 +14 1014.2 1008.5
00 18.06 ЮЗ 5 10 км ясно +14.2 +10.8 80 +13 +13 1015.2 1009.5 +17.8
03 18.06 В 3 15 км 5/5 540 м
[Sc]
+13.9 +11.1 83 +13 +13 1015.9 1010.1
06 18.06 В 2 10 км 10/10 500 м
[Sc]
+14.7 +10.9 78 +14 +14 1015.4 1009.7
09 18.06 В 2 15 км 10/10 540 м
[Sc]
+14.4 +10.1 75 +14 +14 1014.5 1008.8
12 18.06 ЮВ 2 12 км 3/3 900 м
[Sc]
+13.0 +8.5 74 +12 +13 1014.7 1008.9 +12.6
15 18.06 СЗ 3 20 км 5/4 660 м
[Sc Ci fib]
+16.2 +10.8 70 +16 +20 1014.9 1009.2
18 18.06 СЗ 4 20 км 8/8 630 м
[Sc]
+16.2 +11.0 71 +16 +17 1012.6 1006.9
21 18.06 С 3 20 км 1/1 900 м
[Sc]
+16.0 +11.2 73 +16 +16 1011.6 1005.9
00 19.06 СВ 4 15 км 9/9 570 м
[Sc]
+15.3 +11.5 78 +14 +14 1012.6 1006.9 +17.1
03 19.06 С 4 10 км 10/10 500 м
[Sc]
+15.2 +11.2 77 +14 +14 1013.2 1007.5
06 19.06 В 3 10 км 6/6 480 м
[Sc]
+14.6 +10.7 77 +14 +14 1012.5 1006.8
09 19.06 С 3 10 км 10/10 400 м
[Sc]
+14.5 +11.1 80 +14 +14 1012.1 1006.4
12 19.06 СВ 2 12 км 10/10 450 м
[Sc]
+14.5 +10.6 77 +14 +14 1012.7 1007.0 +13.9
15 19.06 СВ 3 10 км 8/8 420 м
[Sc]
+15.3 +11.3 77 +15 +16 1013.3 1007.6
18 19.06 С 4 10 км 10/10 630 м
[Sc]
+16.7 +12.1 74 +16 +16 1011.1 1005.5
21 19.06 С 4 10 км 10/10 600 м
[Sc]
+16.1 +12.7 80 +15 +15 1010.0 1004.4
00 20.06 С 4 10 км 10/10 570 м
[Sc]
+16.2 +12.8 80 +15 +15 1012.2 1006.5 +17.6
03 20.06 С 6 10 км 10/10 540 м
[Sc]
+15.7 +13.6 87 +14 +14 1014.9 1009.2

 

Местоположение метеостанции Икике (Чили): широта -20.53 долгота -70.18 высота над уровнем моря 48 м.

В архиве по умолчанию представлена погода в Икике за последнюю неделю. Архивные данные за месяц целиком и за предыдущие месяцы, начиная с января 2011 года, Вы можете получить, выбрав интересующий диапазон дат из раскрывающегося списка и нажав кнопку "Ввод!".


*Определитесь, кто Вы:
робот инопланетянин человек

Внимание! Время в таблицах - всемирное. Для получения местного времени необходимо прибавить поправку, которая равна -4 ч.

Смотрите также архив погоды в соседних городах и на ближайших метеорологических станциях:

Погода в Икика университете (Чили) (29 км)
Погода в Арика аэропорту (Чили) (227 км)
Погода в Арике (Чили) (230 км)
Погода в Каламе (Чили) (252 км)
Погода в Туре (Чили) (267 км)
Погода в Такне (Перу) (276 км)
Погода в Антофагасте (Чили) (324 км)
Погода в Висвири (Чили) (335 км)
Погода в Ило (Перу) (339 км)
Погода в Антофагаста университете (Чили) (351 км)

Пояснения к столбцам:

Ветер - указаны скорость ветра в м/с - средняя за 10 мин, порывы в срок и между сроками (в фигурных скобках) и направление, откуда дует ветер: С - северный, СВ - северо-восточный, В - восточный, ЮВ - юго-восточный, Ю - южный, ЮЗ - юго-западный, З - западный, СЗ - северо-западный.
Видимость - горизонтальная дальность видимости в метрах или километрах. При видимости от 1 до 10 км при отсутствии осадков обычно наблюдается дымка, при ухудшении видимости до 1 км и менее - туман. В сухую погоду видимость может ухудшаться дымом, пылью или мглою.
Явления - указаны атмосферные явления, наблюдавшиеся в срок или в последний час перед сроком; фигурными скобками обозначены явления, наблюдавшиеся между сроками (за 1-3 часа до срока); квадратными скобками обозначены град или гололедные отложения с указанием их диаметра в мм.
Облачность - указаны через наклонную черту общая и нижняя облачность в баллах и высота нижней границы облаков в метрах; квадратными скобками обозначены формы облаков: Ci - перистые, Cs - перисто-слоистые, Cc - перисто-кучевые, Ac - высококучевые, As - высокослоистые, Sc - слоисто-кучевые, Ns - слоисто-дождевые, Cu - кучевые, Cb - кучево-дождевые. Подробнее классификацию облаков см. в Атласе облаков (PDF).
T - Температура воздуха - температура, измеренная на высоте 2 м над землей.
Td - Температура точки росы - температура, при понижении до которой содержащийся в воздухе водяной пар достигнет насыщения.
f - Относительная влажность воздуха - влажноcть воздуха, измеренная на высоте 2 м над землей.
Te - Эффективная температура - температура, которую ощущает одетый по сезону человек в тени. Характеристика душности погоды. При расчете учитывается влияние влажности воздуха и скорости ветра на теплоощущения человека.
Tes - Эффективная температура на солнце - температура, которую ощущает человек, с поправкой на солнечный нагрев. Характеристика знойности погоды. Зависит от высоты солнца над горизонтом, облачности и скорости ветра. Ночью, в пасмурную погоду, а также при ветре 12 м/с и более поправка равна нулю.
P - Атмосферное давление - приведенное к уровню моря атмосферное давление.
Po - Атмосферное давление - измеренное на уровне метеостанции атмосферное давление.
Tmin - Минимальная температура - минимум температуры воздуха на высоте 2 м над землей.
Tmax - Максимальная температура - максимум температуры воздуха на высоте 2 м над землей.
R - Количество осадков - Количество выпавших осадков за период времени, мм. При наведении курсора мыши на число - период времени, за который выпало указанное количество осадков.
R24 - Количество осадков - Количество выпавших осадков за 24 часа, мм.
S - Снежный покров - Высота снежного покрова, см. При наведении курсора мыши на число - состояние снежного покрова и степень покрытия местности в баллах.